TimeEDT,TemperatureF,Dew PointF,Humidity,Sea Level PressureIn,VisibilityMPH,Wind Direction,Wind SpeedMPH,Gust SpeedMPH,PrecipitationIn,Events,Conditions,WindDirDegrees,DateUTC
12:53 AM,57.9,57.0,97,29.75,10.0,WSW,4.6,-,N/A,,Mostly Cloudy,250,2012-10-16 04:53:00
1:53 AM,57.0,55.9,96,29.75,10.0,NW,6.9,-,N/A,,Scattered Clouds,310,2012-10-16 05:53:00
2:53 AM,54.0,52.0,93,29.75,10.0,WNW,5.8,-,N/A,,Clear,300,2012-10-16 06:53:00
3:53 AM,53.1,50.0,89,29.76,10.0,NW,8.1,-,N/A,,Clear,310,2012-10-16 07:53:00
4:53 AM,51.1,48.9,92,29.78,10.0,NW,8.1,-,N/A,,Clear,310,2012-10-16 08:53:00
6:53 AM,50.0,46.9,89,29.83,10.0,NW,5.8,-,N/A,,Clear,320,2012-10-16 10:53:00
8:53 AM,54.0,46.9,77,29.87,10.0,NNW,10.4,-,N/A,,Clear,340,2012-10-16 12:53:00
9:53 AM,57.0,45.0,64,29.88,10.0,NNW,9.2,-,N/A,,Clear,330,2012-10-16 13:53:00
10:53 AM,60.1,44.1,55,29.88,10.0,NNW,16.1,24.2,N/A,,Clear,340,2012-10-16 14:53:00
11:53 AM,61.0,44.1,54,29.87,10.0,NNW,9.2,19.6,N/A,,Clear,340,2012-10-16 15:53:00
12:53 PM,62.1,43.0,50,29.86,10.0,NW,15.0,21.9,N/A,,Clear,310,2012-10-16 16:53:00
1:53 PM,63.0,43.0,48,29.84,10.0,NW,9.2,-,N/A,,Clear,310,2012-10-16 17:53:00
2:53 PM,64.0,44.1,48,29.83,10.0,NW,15.0,20.7,N/A,,Clear,310,2012-10-16 18:53:00
3:53 PM,64.0,45.0,50,29.83,10.0,NW,10.4,-,N/A,,Clear,320,2012-10-16 19:53:00
4:53 PM,63.0,45.0,52,29.84,10.0,NW,8.1,-,N/A,,Clear,320,2012-10-16 20:53:00
5:53 PM,59.0,44.1,58,29.86,10.0,Variable,3.5,-,N/A,,Clear,0,2012-10-16 21:53:00
6:53 PM,54.0,45.0,72,29.88,10.0,NW,3.5,-,N/A,,Clear,320,2012-10-16 22:53:00
7:53 PM,46.9,44.1,90,29.90,10.0,NNW,4.6,-,N/A,,Clear,330,2012-10-16 23:53:00
8:53 PM,46.9,44.1,90,29.91,10.0,Calm,Calm,-,N/A,,Clear,0,2012-10-17 00:53:00
9:53 PM,45.0,44.1,97,29.93,10.0,Calm,Calm,-,N/A,,Clear,0,2012-10-17 01:53:00
10:53 PM,44.1,43.0,96,29.94,10.0,Calm,Calm,-,N/A,,Clear,0,2012-10-17 02:53:00
11:53 PM,43.0,42.1,97,29.93,10.0,Calm,Calm,-,N/A,,Clear,0,2012-10-17 03:53:00